QPF
0.00 0.01 0.01 0.01 0.01 0.00 0.00 0.00 0.00 0.00 0.00 0.00 0.00 0.00 0.00 0.00 0.00 0.00 0.00 0.00 0.00 0.00 0.00 0.00 0.00 0.00 0.00 0.00 0.00 0.00 0.00 0.00 0.00 0.00 0.00 0.00 0.00 0.00 0.00 0.00 0.00 0.00 0.00
0.01 0.00 0.01 0.01 0.01 0.00 0.00 0.00 0.00 0.00 0.00 0.00 0.00 0.00 0.00 0.00 0.00 0.00 0.00 0.00 0.00 0.00 0.00 0.00 0.00 0.00 0.00 0.00 0.00 0.00 0.00 0.00 0.00 0.00 0.00 0.00 0.00 0.00 0.00 0.00 0.00 0.00 0.00
0.01 0.01 0.01 0.01 0.01 0.00 0.00 0.00 0.00 0.00 0.00 0.00 0.00 0.00 0.00 0.00 0.00 0.00 0.00 0.00 0.00 0.00 0.00 0.00 0.00 0.00 0.00 0.00 0.00 0.00 0.00 0.00 0.00 0.00 0.00 0.00 0.00 0.00 0.00 0.00 0.00 0.00 0.00
0.01 0.01 0.01 0.01 0.00 0.00 0.00 0.00 0.00 0.00 0.00 0.00 0.00 0.00 0.00 0.00 0.00 0.00 0.00 0.00 0.00 0.00 0.00 0.00 0.00 0.00 0.00 0.00 0.00 0.00 0.00 0.00 0.00 0.00 0.00 0.00 0.00 0.00 0.00 0.00 0.00 0.00 0.01
0.01 0.01 0.01 0.00 0.00 0.00 0.00 0.00 0.00 0.00 0.00 0.00 0.00 0.00 0.00 0.00 0.00 0.00 0.00 0.00 0.00 0.00 0.00 0.00 0.00 0.00 0.00 0.00 0.00 0.00 0.00 0.00 0.00 0.00 0.00 0.00 0.00 0.00 0.00 0.01 0.01 0.01 0.01
0.02 0.01 0.01 0.01 0.00 0.00 0.00 0.00 0.00 0.00 0.00 0.00 0.00 0.00 0.00 0.00 0.00 0.00 0.00 0.00 0.00 0.00 0.00 0.00 0.00 0.00 0.00 0.00 0.00 0.00 0.00 0.00 0.00 0.00 0.00 0.00 0.00 0.00 0.00 0.01 0.01 0.01 0.01
0.04 0.02 0.01 0.01 0.00 0.00 0.00 0.00 0.00 0.00 0.00 0.00 0.00 0.00 0.00 0.00 0.00 0.00 0.00 0.00 0.00 0.00 0.00 0.00 0.00 0.00 0.00 0.00 0.00 0.00 0.00 0.00 0.00 0.00 0.00 0.00 0.00 0.00 0.01 0.01 0.01 0.01 0.02
0.06 0.04 0.02 0.01 0.00 0.00 0.00 0.00 0.00 0.00 0.00 0.00 0.00 0.00 0.00 0.00 0.00 0.00 0.00 0.00 0.00 0.00 0.00 0.00 0.00 0.00 0.00 0.00 0.00 0.00 0.00 0.00 0.00 0.00 0.00 0.00 0.00 0.00 0.01 0.01 0.01 0.02 0.02
0.07 0.05 0.03 0.01 0.01 0.00 0.00 0.00 0.00 0.00 0.00 0.00 0.00 0.00 0.00 0.00 0.00 0.00 0.00 0.00 0.00 0.00 0.00 0.00 0.00 0.00 0.00 0.00 0.00 0.00 0.00 0.00 0.00 0.00 0.00 0.00 0.00 0.01 0.01 0.01 0.01 0.01 0.02
0.07 0.05 0.04 0.02 0.01 0.01 0.00 0.00 0.00 0.00 0.00 0.00 0.00 0.00 0.00 0.00 0.00 0.00 0.00 0.00 0.00 0.00 0.00 0.00 0.00 0.00 0.00 0.00 0.00 0.00 0.00 0.00 0.00 0.00 0.00 0.00 0.00 0.00 0.01 0.01 0.01 0.01 0.02
0.09 0.07 0.05 0.03 0.02 0.01 0.01 0.00 0.00 0.00 0.00 0.00 0.00 0.00 0.00 0.00 0.00 0.00 0.00 0.00 0.00 0.00 0.00 0.00 0.00 0.00 0.00 0.00 0.00 0.00 0.00 0.00 0.00 0.00 0.00 0.00 0.00 0.00 0.00 0.01 0.01 0.01 0.01
0.13 0.08 0.06 0.04 0.02 0.01 0.01 0.00 0.00 0.00 0.00 0.00 0.00 0.00 0.00 0.00 0.00 0.00 0.00 0.00 0.00 0.00 0.00 0.00 0.00 0.00 0.00 0.00 0.00 0.00 0.00 0.00 0.00 0.00 0.00 0.00 0.00 0.00 0.00 0.00 0.01 0.01 0.01
0.14 0.11 0.06 0.04 0.03 0.02 0.01 0.00 0.00 0.00 0.00 0.00 0.00 0.00 0.00 0.00 0.00 0.00 0.00 0.00 0.00 0.00 0.00 0.00 0.00 0.00 0.00 0.00 0.00 0.00 0.00 0.00 0.00 0.00 0.00 0.00 0.00 0.00 0.00 0.00 0.00 0.01 0.01
0.13 0.11 0.07 0.04 0.03 0.02 0.01 0.01 0.00 0.00 0.00 0.00 0.00 0.00 0.00 0.00 0.00 0.00 0.00 0.00 0.00 0.00 0.00 0.00 0.00 0.00 0.00 0.00 0.00 0.00 0.00 0.00 0.00 0.00 0.00 0.00 0.00 0.00 0.00 0.00 0.00 0.01 0.01
0.14 0.13 0.09 0.06 0.03 0.02 0.01 0.01 0.00 0.00 0.00 0.00 0.00 0.00 0.00 0.00 0.00 0.00 0.00 0.00 0.00 0.00 0.00 0.00 0.00 0.00 0.00 0.00 0.00 0.00 0.00 0.00 0.00 0.00 0.00 0.00 0.00 0.00 0.00 0.00 0.00 0.00 0.01
0.13 0.14 0.13 0.09 0.05 0.03 0.02 0.01 0.01 0.00 0.00 0.00 0.00 0.00 0.00 0.00 0.00 0.00 0.00 0.00 0.00 0.00 0.00 0.00 0.00 0.00 0.00 0.00 0.00 0.00 0.00 0.00 0.00 0.00 0.00 0.00 0.00 0.00 0.00 0.00 0.00 0.00 0.00
0.13 0.12 0.12 0.11 0.08 0.06 0.04 0.02 0.01 0.01 0.00 0.00 0.00 0.00 0.00 0.00 0.00 0.00 0.00 0.00 0.00 0.00 0.00 0.00 0.00 0.00 0.00 0.00 0.00 0.00 0.00 0.00 0.00 0.00 0.00 0.00 0.00 0.00 0.00 0.00 0.00 0.00 0.00
0.13 0.12 0.11 0.10 0.09 0.07 0.06 0.05 0.03 0.01 0.01 0.00 0.00 0.00 0.01 0.01 0.01 0.00 0.00 0.00 0.00 0.00 0.00 0.00 0.00 0.01 0.00 0.00 0.00 0.00 0.00 0.00 0.00 0.00 0.00 0.00 0.00 0.00 0.00 0.00 0.00 0.00 0.00
0.14 0.12 0.11 0.10 0.09 0.07 0.05 0.05 0.05 0.03 0.02 0.01 0.01 0.01 0.01 0.01 0.01 0.00 0.00 0.00 0.00 0.00 0.00 0.00 0.01 0.00 0.00 0.00 0.00 0.00 0.00 0.00 0.00 0.00 0.00 0.00 0.00 0.00 0.00 0.00 0.00 0.00 0.00
0.16 0.12 0.09 0.08 0.07 0.06 0.05 0.05 0.05 0.04 0.03 0.02 0.01 0.01 0.01 0.01 0.01 0.01 0.01 0.01 0.01 0.01 0.01 0.01 0.00 0.00 0.00 0.00 0.00 0.00 0.00 0.00 0.00 0.00 0.00 0.00 0.00 0.00 0.00 0.00 0.00 0.00 0.00
0.19 0.14 0.10 0.07 0.05 0.05 0.04 0.04 0.04 0.04 0.04 0.03 0.02 0.02 0.01 0.02 0.02 0.01 0.01 0.01 0.01 0.01 0.01 0.01 0.01 0.01 0.01 0.01 0.01 0.00 0.00 0.00 0.00 0.00 0.00 0.00 0.00 0.00 0.00 0.00 0.00 0.00 0.01
0.20 0.19 0.14 0.09 0.06 0.04 0.03 0.03 0.03 0.03 0.03 0.03 0.03 0.02 0.02 0.02 0.01 0.01 0.02 0.02 0.02 0.02 0.01 0.01 0.01 0.01 0.01 0.01 0.01 0.01 0.00 0.00 0.00 0.00 0.00 0.00 0.00 0.00 0.00 0.00 0.00 0.00 0.00
0.16 0.17 0.17 0.12 0.07 0.04 0.02 0.02 0.02 0.02 0.02 0.03 0.03 0.02 0.02 0.01 0.01 0.01 0.02 0.02 0.02 0.02 0.02 0.02 0.01 0.01 0.01 0.01 0.01 0.00 0.00 0.00 0.00 0.00 0.00 0.00 0.00 0.00 0.00 0.00 0.00 0.00 0.00
0.15 0.15 0.15 0.14 0.09 0.05 0.03 0.01 0.01 0.02 0.02 0.02 0.02 0.02 0.02 0.02 0.02 0.02 0.02 0.03 0.03 0.03 0.03 0.02 0.01 0.01 0.01 0.01 0.01 0.01 0.00 0.00 0.00 0.00 0.00 0.00 0.00 0.00 0.01 0.01 0.01 0.01 0.00
0.13 0.15 0.16 0.14 0.11 0.06 0.03 0.02 0.01 0.01 0.01 0.01 0.01 0.02 0.02 0.02 0.03 0.03 0.04 0.04 0.04 0.04 0.03 0.03 0.03 0.02 0.02 0.01 0.01 0.01 0.01 0.01 0.01 0.01 0.01 0.01 0.01 0.01 0.01 0.01 0.01 0.01 0.01
0.12 0.13 0.15 0.16 0.14 0.10 0.05 0.03 0.02 0.02 0.01 0.01 0.01 0.02 0.02 0.02 0.03 0.03 0.04 0.05 0.04 0.03 0.03 0.03 0.03 0.03 0.03 0.03 0.03 0.02 0.01 0.01 0.02 0.01 0.01 0.01 0.01 0.01 0.02 0.01 0.01 0.01 0.01
MSLP
1016.65 1016.88 1017.03 1017.12 1017.18 1017.23 1017.30 1017.41 1017.55 1017.72 1017.89 1018.04 1018.14 1018.19 1018.19 1018.15 1018.09 1018.01 1017.95 1017.90 1017.88 1017.87 1017.88 1017.89 1017.91 1017.93 1017.96 1017.98 1017.99 1018.00 1018.00 1017.98 1017.94 1017.89 1017.82 1017.73 1017.63 1017.51 1017.38 1017.21 1017.02 1016.79 1016.53
1016.28 1016.53 1016.71 1016.85 1016.95 1017.05 1017.16 1017.30 1017.46 1017.64 1017.82 1017.97 1018.06 1018.10 1018.08 1018.02 1017.92 1017.81 1017.71 1017.63 1017.59 1017.57 1017.57 1017.60 1017.63 1017.66 1017.68 1017.69 1017.69 1017.67 1017.64 1017.59 1017.54 1017.48 1017.41 1017.34 1017.27 1017.17 1017.06 1016.91 1016.71 1016.48 1016.21
1015.79 1016.06 1016.29 1016.48 1016.65 1016.81 1016.98 1017.16 1017.36 1017.56 1017.74 1017.89 1017.98 1018.00 1017.96 1017.86 1017.73 1017.58 1017.44 1017.33 1017.26 1017.23 1017.24 1017.27 1017.31 1017.36 1017.39 1017.39 1017.38 1017.34 1017.28 1017.21 1017.13 1017.06 1016.99 1016.93 1016.87 1016.79 1016.70 1016.56 1016.38 1016.15 1015.87
1015.22 1015.52 1015.80 1016.06 1016.30 1016.53 1016.76 1016.99 1017.22 1017.43 1017.63 1017.77 1017.86 1017.87 1017.81 1017.69 1017.53 1017.35 1017.17 1017.03 1016.94 1016.90 1016.90 1016.94 1017.00 1017.06 1017.10 1017.11 1017.09 1017.04 1016.96 1016.86 1016.77 1016.68 1016.61 1016.54 1016.48 1016.41 1016.32 1016.20 1016.02 1015.80 1015.52
1014.64 1014.96 1015.28 1015.59 1015.89 1016.19 1016.47 1016.74 1017.01 1017.25 1017.45 1017.60 1017.69 1017.70 1017.63 1017.50 1017.32 1017.12 1016.93 1016.77 1016.65 1016.59 1016.59 1016.63 1016.70 1016.76 1016.82 1016.84 1016.82 1016.77 1016.68 1016.57 1016.46 1016.36 1016.27 1016.19 1016.13 1016.06 1015.97 1015.84 1015.67 1015.45 1015.18
1014.07 1014.40 1014.74 1015.09 1015.44 1015.78 1016.10 1016.41 1016.70 1016.96 1017.18 1017.34 1017.44 1017.46 1017.41 1017.29 1017.12 1016.92 1016.72 1016.55 1016.41 1016.34 1016.32 1016.34 1016.40 1016.47 1016.53 1016.56 1016.55 1016.50 1016.42 1016.31 1016.20 1016.08 1015.98 1015.90 1015.82 1015.74 1015.64 1015.52 1015.35 1015.13 1014.87
1013.53 1013.84 1014.18 1014.55 1014.92 1015.28 1015.64 1015.97 1016.27 1016.55 1016.78 1016.97 1017.09 1017.15 1017.13 1017.05 1016.91 1016.73 1016.54 1016.36 1016.21 1016.11 1016.06 1016.06 1016.09 1016.14 1016.19 1016.22 1016.22 1016.19 1016.12 1016.03 1015.93 1015.83 1015.73 1015.64 1015.55 1015.47 1015.36 1015.24 1015.07 1014.86 1014.61
1012.99 1013.27 1013.60 1013.96 1014.34 1014.71 1015.07 1015.41 1015.73 1016.01 1016.27 1016.48 1016.64 1016.75 1016.79 1016.76 1016.67 1016.53 1016.36 1016.19 1016.02 1015.89 1015.80 1015.75 1015.74 1015.75 1015.78 1015.80 1015.81 1015.79 1015.75 1015.70 1015.63 1015.56 1015.48 1015.41 1015.33 1015.25 1015.15 1015.02 1014.86 1014.67 1014.43
1012.42 1012.67 1012.97 1013.32 1013.68 1014.04 1014.40 1014.74 1015.06 1015.36 1015.63 1015.88 1016.09 1016.25 1016.35 1016.39 1016.37 1016.28 1016.15 1015.98 1015.81 1015.64 1015.49 1015.38 1015.30 1015.27 1015.25 1015.26 1015.27 1015.28 1015.29 1015.28 1015.27 1015.25 1015.22 1015.19 1015.14 1015.08 1014.99 1014.89 1014.74 1014.57 1014.35
1011.78 1012.00 1012.28 1012.60 1012.94 1013.29 1013.64 1013.98 1014.30 1014.60 1014.90 1015.17 1015.43 1015.64 1015.82 1015.93 1015.98 1015.95 1015.85 1015.71 1015.52 1015.32 1015.12 1014.94 1014.80 1014.70 1014.64 1014.62 1014.64 1014.68 1014.73 1014.79 1014.85 1014.90 1014.94 1014.97 1014.97 1014.95 1014.90 1014.83 1014.71 1014.57 1014.38
1011.04 1011.24 1011.50 1011.80 1012.13 1012.47 1012.81 1013.13 1013.45 1013.76 1014.06 1014.36 1014.65 1014.92 1015.16 1015.34 1015.46 1015.49 1015.44 1015.32 1015.14 1014.92 1014.67 1014.44 1014.24 1014.09 1013.99 1013.95 1013.97 1014.04 1014.14 1014.27 1014.41 1014.54 1014.66 1014.76 1014.83 1014.86 1014.86 1014.82 1014.75 1014.64 1014.49
1010.21 1010.40 1010.64 1010.93 1011.24 1011.57 1011.90 1012.22 1012.53 1012.84 1013.14 1013.46 1013.77 1014.08 1014.37 1014.61 1014.79 1014.88 1014.89 1014.81 1014.65 1014.44 1014.18 1013.92 1013.68 1013.49 1013.36 1013.31 1013.34 1013.43 1013.58 1013.78 1013.99 1014.20 1014.40 1014.57 1014.70 1014.79 1014.84 1014.85 1014.82 1014.76 1014.65
1009.29 1009.46 1009.70 1009.97 1010.28 1010.59 1010.91 1011.22 1011.52 1011.82 1012.13 1012.44 1012.77 1013.10 1013.43 1013.72 1013.96 1014.12 1014.20 1014.18 1014.07 1013.89 1013.66 1013.41 1013.17 1012.97 1012.84 1012.79 1012.83 1012.95 1013.13 1013.37 1013.64 1013.91 1014.17 1014.40 1014.59 1014.73 1014.83 1014.88 1014.90 1014.87 1014.80
1008.31 1008.46 1008.68 1008.93 1009.23 1009.53 1009.83 1010.13 1010.42 1010.71 1011.00 1011.31 1011.64 1011.99 1012.34 1012.67 1012.97 1013.21 1013.36 1013.43 1013.40 1013.29 1013.12 1012.92 1012.72 1012.56 1012.45 1012.42 1012.48 1012.62 1012.83 1013.10 1013.40 1013.71 1014.00 1014.26 1014.48 1014.66 1014.79 1014.88 1014.93 1014.94 1014.90
1007.31 1007.43 1007.60 1007.83 1008.09 1008.37 1008.65 1008.93 1009.20 1009.48 1009.76 1010.06 1010.39 1010.74 1011.12 1011.49 1011.84 1012.15 1012.40 1012.56 1012.64 1012.64 1012.57 1012.46 1012.34 1012.24 1012.19 1012.20 1012.29 1012.46 1012.69 1012.97 1013.27 1013.59 1013.89 1014.15 1014.38 1014.57 1014.72 1014.82 1014.90 1014.94 1014.93
1006.34 1006.39 1006.50 1006.67 1006.88 1007.12 1007.37 1007.63 1007.88 1008.13 1008.40 1008.70 1009.02 1009.38 1009.78 1010.19 1010.59 1010.98 1011.31 1011.59 1011.79 1011.91 1011.97 1011.98 1011.97 1011.97 1012.00 1012.07 1012.21 1012.40 1012.65 1012.93 1013.23 1013.53 1013.81 1014.07 1014.28 1014.46 1014.60 1014.72 1014.80 1014.85 1014.88
1005.44 1005.39 1005.41 1005.50 1005.64 1005.82 1006.02 1006.23 1006.46 1006.70 1006.95 1007.24 1007.57 1007.94 1008.35 1008.79 1009.24 1009.69 1010.12 1010.49 1010.81 1011.07 1011.26 1011.41 1011.53 1011.65 1011.77 1011.93 1012.13 1012.37 1012.64 1012.93 1013.22 1013.51 1013.77 1013.99 1014.18 1014.34 1014.46 1014.57 1014.65 1014.71 1014.75
1004.64 1004.47 1004.39 1004.37 1004.42 1004.51 1004.65 1004.81 1005.00 1005.21 1005.46 1005.74 1006.06 1006.44 1006.86 1007.33 1007.82 1008.32 1008.81 1009.27 1009.70 1010.07 1010.39 1010.68 1010.93 1011.17 1011.42 1011.67 1011.95 1012.25 1012.57 1012.89 1013.19 1013.47 1013.72 1013.93 1014.09 1014.22 1014.33 1014.41 1014.48 1014.54 1014.58
1003.97 1003.69 1003.48 1003.34 1003.28 1003.28 1003.33 1003.43 1003.57 1003.75 1003.97 1004.24 1004.56 1004.93 1005.36 1005.83 1006.34 1006.87 1007.41 1007.93 1008.43 1008.89 1009.32 1009.73 1010.11 1010.47 1010.84 1011.22 1011.60 1011.99 1012.38 1012.75 1013.10 1013.40 1013.66 1013.86 1014.02 1014.13 1014.21 1014.28 1014.33 1014.37 1014.41
1003.45 1003.06 1002.73 1002.48 1002.30 1002.19 1002.14 1002.16 1002.24 1002.37 1002.56 1002.80 1003.10 1003.46 1003.87 1004.33 1004.84 1005.37 1005.92 1006.47 1007.01 1007.54 1008.05 1008.55 1009.04 1009.53 1010.03 1010.53 1011.03 1011.54 1012.03 1012.49 1012.91 1013.27 1013.56 1013.79 1013.96 1014.07 1014.14 1014.19 1014.22 1014.24 1014.25
1003.10 1002.61 1002.18 1001.81 1001.51 1001.29 1001.14 1001.07 1001.06 1001.13 1001.26 1001.46 1001.73 1002.05 1002.43 1002.87 1003.34 1003.85 1004.38 1004.93 1005.49 1006.05 1006.62 1007.20 1007.79 1008.39 1009.01 1009.64 1010.28 1010.91 1011.53 1012.11 1012.63 1013.08 1013.45 1013.73 1013.93 1014.06 1014.13 1014.15 1014.15 1014.14 1014.12
1002.90 1002.35 1001.83 1001.37 1000.96 1000.63 1000.37 1000.18 1000.08 1000.06 1000.12 1000.26 1000.46 1000.74 1001.07 1001.45 1001.88 1002.35 1002.85 1003.38 1003.94 1004.52 1005.13 1005.76 1006.44 1007.14 1007.87 1008.64 1009.41 1010.19 1010.94 1011.65 1012.29 1012.85 1013.31 1013.66 1013.91 1014.07 1014.14 1014.16 1014.13 1014.08 1014.02
1002.82 1002.24 1001.67 1001.13 1000.63 1000.18 999.81 999.52 999.31 999.19 999.15 999.20 999.33 999.53 999.80 1000.12 1000.49 1000.91 1001.38 1001.89 1002.44 1003.03 1003.67 1004.37 1005.11 1005.91 1006.75 1007.64 1008.54 1009.45 1010.33 1011.17 1011.94 1012.61 1013.16 1013.59 1013.90 1014.09 1014.18 1014.19 1014.14 1014.05 1013.94
1002.82 1002.24 1001.64 1001.04 1000.47 999.93 999.45 999.05 998.73 998.49 998.35 998.30 998.34 998.46 998.65 998.91 999.23 999.61 1000.04 1000.54 1001.09 1001.70 1002.38 1003.13 1003.95 1004.83 1005.77 1006.76 1007.77 1008.79 1009.79 1010.73 1011.60 1012.36 1013.00 1013.51 1013.87 1014.10 1014.21 1014.21 1014.14 1014.02 1013.87
1002.84 1002.27 1001.67 1001.04 1000.41 999.80 999.23 998.73 998.30 997.95 997.71 997.56 997.50 997.53 997.65 997.85 998.12 998.47 998.89 999.38 999.96 1000.61 1001.34 1002.15 1003.04 1004.00 1005.02 1006.09 1007.18 1008.28 1009.35 1010.37 1011.31 1012.14 1012.84 1013.40 1013.80 1014.06 1014.20 1014.21 1014.13 1013.99 1013.81
1002.80 1002.27 1001.68 1001.05 1000.39 999.73 999.09 998.51 997.99 997.55 997.20 996.96 996.81 996.77 996.82 996.96 997.20 997.53 997.95 998.47 999.07 999.78 1000.57 1001.45 1002.41 1003.44 1004.53 1005.65 1006.80 1007.94 1009.05 1010.11 1011.07 1011.93 1012.66 1013.25 1013.69 1013.98 1014.13 1014.16 1014.09 1013.95 1013.76
Thickness
5701 5700 5699 5699 5697 5696 5695 5694 5692 5691 5689 5688 5687 5685 5684 5682 5680 5678 5676 5675 5673 5671 5669 5666 5662 5659 5656 5652 5649 5646 5642 5638 5635 5631 5628 5624 5620 5616 5612 5609 5605 5602 5598
5697 5696 5694 5693 5692 5691 5690 5689 5688 5686 5684 5683 5682 5681 5679 5677 5675 5673 5671 5670 5668 5666 5664 5661 5658 5654 5651 5648 5644 5641 5637 5633 5630 5626 5622 5618 5614 5610 5606 5602 5599 5595 5591
5693 5692 5689 5688 5687 5686 5685 5683 5682 5681 5679 5678 5676 5676 5674 5672 5670 5668 5666 5665 5663 5661 5659 5656 5653 5650 5647 5643 5640 5636 5632 5628 5624 5621 5617 5613 5608 5604 5600 5596 5592 5588 5584
5689 5687 5686 5684 5683 5681 5680 5678 5677 5675 5673 5672 5670 5670 5669 5667 5665 5663 5661 5659 5658 5655 5653 5650 5648 5645 5642 5638 5635 5631 5627 5623 5619 5615 5611 5607 5603 5598 5594 5590 5585 5581 5577
5684 5683 5682 5680 5678 5676 5675 5674 5672 5670 5668 5666 5665 5663 5663 5661 5660 5658 5656 5654 5653 5650 5648 5645 5643 5640 5637 5633 5630 5626 5623 5619 5614 5610 5606 5601 5597 5592 5588 5583 5579 5574 5570
5680 5678 5677 5675 5673 5671 5669 5669 5667 5665 5664 5662 5660 5657 5656 5656 5655 5653 5652 5650 5648 5645 5643 5640 5638 5635 5631 5628 5625 5621 5618 5614 5609 5605 5600 5596 5591 5586 5582 5577 5572 5567 5562
5675 5674 5672 5670 5669 5667 5666 5664 5662 5659 5657 5655 5651 5647 5647 5648 5648 5648 5647 5645 5643 5641 5638 5636 5633 5630 5627 5623 5620 5616 5613 5609 5604 5600 5595 5590 5585 5580 5575 5570 5565 5560 5555
5669 5668 5668 5666 5664 5663 5660 5659 5658 5654 5652 5650 5648 5642 5639 5639 5642 5643 5642 5640 5639 5636 5634 5631 5628 5625 5622 5618 5615 5611 5607 5603 5599 5595 5590 5584 5579 5574 5569 5563 5558 5552 5547
5664 5664 5664 5663 5661 5659 5657 5656 5655 5652 5648 5645 5646 5642 5636 5636 5636 5636 5637 5636 5634 5632 5630 5627 5624 5621 5618 5614 5610 5606 5602 5597 5593 5589 5584 5578 5573 5568 5562 5556 5550 5544 5539
5658 5659 5659 5659 5657 5656 5654 5653 5651 5649 5646 5641 5639 5640 5639 5637 5632 5631 5631 5631 5629 5627 5625 5623 5620 5617 5614 5610 5605 5601 5597 5592 5587 5583 5578 5572 5567 5561 5555 5549 5543 5537 5531
5650 5652 5653 5654 5653 5652 5651 5649 5647 5646 5644 5641 5638 5635 5633 5630 5630 5627 5626 5624 5622 5623 5621 5619 5616 5613 5609 5605 5601 5597 5592 5587 5582 5577 5571 5566 5560 5554 5547 5542 5535 5529 5524
5643 5645 5646 5648 5649 5648 5647 5646 5644 5642 5641 5638 5636 5633 5632 5629 5626 5623 5621 5618 5617 5617 5616 5614 5611 5609 5605 5601 5597 5592 5587 5582 5577 5571 5565 5559 5552 5546 5540 5534 5528 5522 5516
5635 5638 5640 5641 5643 5644 5643 5641 5639 5638 5637 5635 5633 5631 5630 5629 5627 5623 5619 5615 5612 5610 5609 5609 5607 5604 5601 5596 5592 5587 5581 5576 5570 5564 5558 5552 5545 5539 5532 5526 5520 5514 5508
5632 5634 5635 5636 5637 5638 5638 5636 5635 5634 5633 5631 5630 5627 5625 5624 5622 5621 5617 5611 5606 5604 5603 5603 5601 5599 5596 5591 5587 5581 5576 5570 5564 5558 5552 5545 5538 5532 5525 5519 5512 5506 5500
5626 5627 5630 5631 5632 5633 5633 5633 5631 5630 5629 5627 5626 5623 5622 5620 5618 5616 5614 5611 5606 5601 5600 5599 5595 5594 5590 5585 5581 5575 5570 5564 5558 5552 5546 5539 5532 5525 5518 5512 5505 5499 5493
5619 5621 5623 5627 5627 5628 5629 5629 5628 5626 5625 5624 5622 5619 5617 5615 5613 5611 5609 5606 5604 5601 5596 5595 5591 5588 5583 5579 5574 5569 5564 5558 5552 5546 5539 5532 5525 5518 5512 5505 5498 5492 5486
5613 5616 5617 5620 5622 5623 5625 5624 5624 5622 5621 5620 5618 5616 5614 5611 5609 5606 5604 5601 5598 5595 5591 5588 5584 5580 5576 5571 5567 5562 5556 5551 5545 5539 5533 5526 5519 5512 5505 5498 5492 5485 5479
5607 5609 5612 5614 5617 5619 5620 5621 5620 5619 5618 5617 5615 5612 5610 5607 5605 5602 5599 5597 5594 5590 5586 5582 5577 5572 5568 5564 5559 5554 5549 5543 5538 5532 5526 5519 5513 5506 5499 5492 5486 5480 5473
5601 5603 5605 5609 5612 5615 5616 5617 5616 5615 5614 5614 5612 5610 5607 5604 5601 5598 5596 5593 5589 5585 5581 5577 5572 5566 5561 5556 5551 5546 5541 5535 5530 5525 5519 5513 5506 5500 5493 5486 5480 5474 5467
5594 5598 5601 5604 5607 5609 5611 5611 5611 5611 5610 5609 5608 5606 5604 5602 5600 5596 5592 5589 5584 5579 5575 5571 5566 5560 5554 5549 5543 5538 5532 5527 5522 5517 5511 5506 5499 5493 5487 5480 5474 5468 5462
5587 5591 5594 5598 5601 5604 5606 5606 5606 5605 5604 5603 5602 5602 5601 5599 5598 5594 5591 5586 5581 5576 5571 5566 5561 5555 5550 5543 5539 5533 5527 5519 5514 5508 5503 5498 5492 5486 5480 5474 5468 5462 5456
5579 5583 5587 5592 5594 5598 5601 5600 5600 5599 5598 5597 5597 5596 5595 5593 5592 5589 5587 5584 5580 5575 5569 5564 5558 5553 5550 5543 5536 5527 5519 5511 5506 5502 5495 5490 5485 5479 5473 5467 5461 5455 5449
5571 5576 5581 5585 5588 5591 5593 5594 5593 5593 5592 5592 5591 5590 5589 5589 5586 5584 5581 5578 5575 5573 5570 5566 5559 5555 5549 5542 5532 5522 5515 5509 5504 5497 5488 5483 5477 5472 5467 5461 5455 5449 5442
5563 5569 5574 5577 5581 5584 5585 5587 5587 5586 5586 5586 5586 5585 5584 5583 5581 5578 5574 5571 5568 5566 5564 5561 5558 5554 5547 5540 5531 5523 5514 5504 5495 5488 5483 5475 5469 5464 5460 5454 5448 5442 5436
5554 5561 5566 5570 5574 5577 5577 5579 5579 5579 5580 5580 5580 5579 5579 5577 5576 5572 5567 5564 5561 5560 5556 5553 5550 5546 5540 5533 5526 5515 5504 5495 5487 5481 5474 5468 5462 5455 5451 5446 5441 5435 5428
5545 5552 5558 5563 5567 5570 5570 5571 5571 5573 5573 5573 5573 5572 5572 5572 5570 5566 5563 5560 5556 5554 5548 5544 5540 5536 5530 5524 5518 5512 5504 5493 5483 5475 5469 5461 5454 5447 5441 5438 5432 5427 5420